Location: Clinton NY
(43.0598°N, 75.3602°W)
Time: 06:10:51
(UTC-04:00)

ISS - All Passes

Search period start: 29 July 2016 00:00
Search period end: 08 August 2016 00:00
Orbit: 401 x 404 km, 51.6° (Epoch: 29 July)

Date Brightness Start Highest point End Pass type
(mag) Time Alt. Az. Time Alt. Az. Time Alt. Az.
29 Jul - 00:35:42 10° NW 00:38:03 18° N 00:40:23 10° NE visible
29 Jul - 02:12:09 10° NW 02:15:10 33° NNE 02:18:10 10° E visible
29 Jul - 03:48:34 10° WNW 03:51:38 39° SW 03:54:41 10° SSE visible
29 Jul - 20:28:20 10° SSW 20:31:19 34° SE 20:34:19 10° ENE daylight
29 Jul - 22:04:42 10° W 22:07:45 36° NNW 22:10:48 10° NE visible
29 Jul - 23:42:30 10° NW 23:44:50 18° N 23:47:11 10° NE visible
30 Jul - 01:19:18 10° NW 01:22:04 24° NNE 01:24:49 10° ENE visible
30 Jul - 02:55:31 10° WNW 02:58:46 77° SW 03:02:01 10° SE night (unlit)
30 Jul - 19:36:12 10° S 19:38:33 19° SE 19:40:55 10° E daylight
30 Jul - 21:11:31 10° WSW 21:14:42 57° NNW 21:17:56 10° NE visible
30 Jul - 22:49:09 10° WNW 22:51:39 20° N 22:54:09 10° NE visible
31 Jul - 00:26:23 10° NW 00:28:54 20° N 00:31:25 10° ENE visible
31 Jul - 02:02:35 10° NW 02:05:50 60° NNE 02:09:02 10° ESE visible
31 Jul - 03:39:40 10° W 03:41:58 18° SW 03:44:15 10° S night (unlit)
31 Jul - 20:18:30 10° SW 20:21:45 80° SE 20:25:01 10° ENE daylight
31 Jul - 21:55:45 10° WNW 21:58:29 24° NNW 22:01:14 10° NE visible
31 Jul - 23:33:22 10° NW 23:35:43 18° N 23:38:04 10° NE visible
01 Aug - 01:09:43 10° NW 01:12:48 37° NNE 01:15:52 10° E visible
01 Aug - 02:46:13 10° WNW 02:49:12 33° SW 02:52:10 10° SSE night (unlit)
01 Aug - 19:25:48 10° SSW 19:28:52 41° SE 19:31:59 10° ENE daylight
01 Aug - 21:02:23 10° W 21:05:22 32° NNW 21:08:22 10° NE visible
01 Aug - 22:40:11 10° NW 22:42:30 18° N 22:44:50 10° NE visible
02 Aug - 00:16:52 10° NW 00:19:43 26° NNE 00:22:32 10° ENE visible
02 Aug - 01:53:07 10° WNW 01:56:21 64° SW 01:59:34 10° SE night (unlit)
02 Aug - 18:33:30 10° S 18:36:05 22° SE 18:38:41 10° E daylight
02 Aug - 20:09:08 10° WSW 20:12:19 50° NNW 20:15:31 10° NE daylight
02 Aug - 21:46:51 10° WNW 21:49:18 19° N 21:51:45 10° NE visible
02 Aug - 23:23:59 10° NW 23:26:33 21° NNE 23:29:08 10° ENE visible
03 Aug - 01:00:10 10° NW 01:03:25 70° NNE 01:06:40 10° ESE visible
03 Aug - 02:37:31 10° W 02:39:29 15° SW 02:41:27 10° S night (unlit)
03 Aug - 17:42:05 10° SSE 17:43:22 12° SE 17:44:39 10° ESE daylight
03 Aug - 19:16:04 10° WSW 19:19:20 87° NW 19:22:36 10° ENE daylight
03 Aug - 20:53:27 10° WNW 20:56:07 23° NNW 20:58:48 10° NE visible
03 Aug - 22:30:58 10° NW 22:33:22 18° N 22:35:44 10° NE visible
04 Aug - 00:07:17 10° NW 00:10:24 41° NNE 00:13:31 10° E visible
04 Aug - 01:43:54 10° WNW 01:46:44 28° SW 01:49:33 10° SSE night (unlit)
04 Aug - 18:23:16 10° SW 18:26:26 49° SE 18:29:36 10° ENE daylight
04 Aug - 20:00:04 10° W 20:02:59 29° NNW 20:05:55 10° NE daylight
04 Aug - 21:37:50 10° NW 21:40:09 18° N 21:42:28 10° NE visible
04 Aug - 23:14:25 10° NW 23:17:20 28° NNE 23:20:13 10° E visible
05 Aug - 00:50:43 10° WNW 00:53:54 53° SW 00:57:04 10° SE visible
05 Aug - 17:30:50 10° SSW 17:33:36 26° SE 17:36:23 10° ENE daylight
05 Aug - 19:06:46 10° W 19:09:54 43° NNW 19:13:03 10° NE daylight
05 Aug - 20:44:32 10° NW 20:46:56 19° N 20:49:20 10° NE visible
05 Aug - 22:21:32 10° NW 22:24:10 22° NNE 22:26:49 10° ENE visible
05 Aug - 23:57:43 10° NW 00:00:59 82° NNE 00:04:14 10° ESE visible
06 Aug - 01:35:28 10° WSW 01:36:59 13° SW 01:38:29 10° SSW night (unlit)
06 Aug - 16:39:02 10° SSE 16:40:51 14° SE 16:42:40 10° E daylight
06 Aug - 18:13:38 10° WSW 18:16:54 74° NNW 18:20:09 10° NE daylight
06 Aug - 19:51:08 10° WNW 19:53:44 21° NNW 19:56:20 10° NE daylight
06 Aug - 21:28:33 10° NW 21:30:59 19° N 21:33:24 10° NE visible
06 Aug - 23:04:48 10° NW 23:07:59 47° NNE 23:11:09 10° ESE visible
07 Aug - 00:41:35 10° W 00:44:14 23° SW 00:46:54 10° S visible
07 Aug - 17:20:45 10° SW 17:23:57 60° SE 17:27:11 10° ENE daylight
07 Aug - 18:57:43 10° W 19:00:35 27° NNW 19:03:26 10° NE daylight
07 Aug - 20:35:26 10° NW 20:37:46 18° N 20:40:05 10° NE daylight
07 Aug - 22:11:56 10° NW 22:14:54 31° NNE 22:17:52 10° E visible
07 Aug - 23:48:18 10° WNW 23:51:25 44° SW 23:54:31 10° SE visible
